Simultaneous Nadir Overpasses (SNOs) Predictions

Prediction of SNOs between GOES-16 and LANDSAT-8 Satellite Orbit:

Table of predicted SNOs for the next 14.0 days since TLE Epoch: 7/1/2023
Index Date Time (GOES-16) GOES-16 Lat,Lon LANDSAT-8 Lat,Lon Distance(km) Time Diff (sec)
1 07/01/2023 03:17:59 -0.00, -75.20 -0.19, -76.16 109.52 80
2 07/03/2023 03:03:09 0.00, -75.20 0.43, -73.21 226.43 80
3 07/03/2023 15:27:05 -0.00, -75.20 0.66, -78.37 359.27 80
4 07/05/2023 15:14:55 -0.02, -75.21 0.03, -75.41 22.84 80
5 07/07/2023 15:00:05 -0.03, -75.23 -0.61, -72.46 314.57 80
6 07/08/2023 03:24:10 0.02, -75.23 -0.46, -77.66 275.63 80
7 07/10/2023 03:09:19 0.03, -75.25 0.13, -74.69 63.14 80
8 07/12/2023 02:57:09 0.03, -75.28 0.80, -71.74 402.56 80
9 07/12/2023 15:21:04 -0.02, -75.29 0.34, -76.89 182.30 80
10 07/14/2023 15:06:14 -0.03, -75.33 -0.34, -73.94 157.70 80
